owner,sensor,date,latitude,longitude,sea_surface_height_above_sea_level,qcFlag 
TCOON,ioos:station:TCOON:005:1,2015-04-01T00:12:00Z,27.6346,-97.2370,0.827,1111122 
TCOON,ioos:station:TCOON:005:1,2015-04-01T01:12:00Z,27.6346,-97.2370,0.831,1111122 
TCOON,ioos:station:TCOON:005:1,2015-04-01T02:12:00Z,27.6346,-97.2370,0.831,1111122 
TCOON,ioos:station:TCOON:005:1,2015-04-01T03:18:00Z,27.6346,-97.2370,0.808,1111122 
TCOON,ioos:station:TCOON:005:1,2015-04-01T04:18:00Z,27.6346,-97.2370,0.822,1111122 
TCOON,ioos:station:TCOON:005:1,2015-04-01T05:18:00Z,27.6346,-97.2370,0.833,1111122 
TCOON,ioos:station:TCOON:005:1,2015-04-01T07:06:00Z,27.6346,-97.2370,0.85,1111122 
TCOON,ioos:station:TCOON:005:1,2015-04-01T08:18:00Z,27.6346,-97.2370,0.851,1111122 
TCOON,ioos:station:TCOON:005:1,2015-04-01T09:24:00Z,27.6346,-97.2370,0.852,1111122 
TCOON,ioos:station:TCOON:005:1,2015-04-01T10:18:00Z,27.6346,-97.2370,0.853,1111122 
TCOON,ioos:station:TCOON:005:1,2015-04-01T11:12:00Z,27.6346,-97.2370,0.848,1111122 
TCOON,ioos:station:TCOON:005:1,2015-04-01T12:12:00Z,27.6346,-97.2370,0.845,1111122 
TCOON,ioos:station:TCOON:005:1,2015-04-01T13:12:00Z,27.6346,-97.2370,0.843,1111122 
TCOON,ioos:station:TCOON:005:1,2015-04-01T14:12:00Z,27.6346,-97.2370,0.849,1111122 
TCOON,ioos:station:TCOON:005:1,2015-04-01T15:18:00Z,27.6346,-97.2370,0.832,1111122 
TCOON,ioos:station:TCOON:005:1,2015-04-01T16:18:00Z,27.6346,-97.2370,0.819,1111122 
TCOON,ioos:station:TCOON:005:1,2015-04-01T17:18:00Z,27.6346,-97.2370,0.808,1111122 
TCOON,ioos:station:TCOON:005:1,2015-04-01T18:12:00Z,27.6346,-97.2370,0.811,1111122 
TCOON,ioos:station:TCOON:005:1,2015-04-01T19:12:00Z,27.6346,-97.2370,0.812,1111122 
TCOON,ioos:station:TCOON:005:1,2015-04-01T20:18:00Z,27.6346,-97.2370,0.807,1111122 
TCOON,ioos:station:TCOON:005:1,2015-04-01T21:12:00Z,27.6346,-97.2370,0.803,1111122 
TCOON,ioos:station:TCOON:005:1,2015-04-01T22:18:00Z,27.6346,-97.2370,0.809,1111122 
TCOON,ioos:station:TCOON:005:1,2015-04-01T23:12:00Z,27.6346,-97.2370,0.824,1111122 
TCOON,ioos:station:TCOON:005:1,2015-04-02T00:12:00Z,27.6346,-97.2370,0.831,1111122 
TCOON,ioos:station:TCOON:005:1,2015-04-02T01:12:00Z,27.6346,-97.2370,0.836,1111122 
TCOON,ioos:station:TCOON:005:1,2015-04-02T02:12:00Z,27.6346,-97.2370,0.845,1111122 
TCOON,ioos:station:TCOON:005:1,2015-04-02T03:12:00Z,27.6346,-97.2370,0.835,1111122 
TCOON,ioos:station:TCOON:005:1,2015-04-02T04:18:00Z,27.6346,-97.2370,0.84,1111122 
TCOON,ioos:station:TCOON:005:1,2015-04-02T05:18:00Z,27.6346,-97.2370,0.832,1111122 
TCOON,ioos:station:TCOON:005:1,2015-04-02T06:18:00Z,27.6346,-97.2370,0.839,1111122 
TCOON,ioos:station:TCOON:005:1,2015-04-02T07:12:00Z,27.6346,-97.2370,0.839,1111122 
TCOON,ioos:station:TCOON:005:1,2015-04-02T08:12:00Z,27.6346,-97.2370,0.838,1111122 
TCOON,ioos:station:TCOON:005:1,2015-04-02T09:30:00Z,27.6346,-97.2370,0.847,1111122 
TCOON,ioos:station:TCOON:005:1,2015-04-02T10:12:00Z,27.6346,-97.2370,0.853,1111122 
TCOON,ioos:station:TCOON:005:1,2015-04-02T11:18:00Z,27.6346,-97.2370,0.86,1111122 
TCOON,ioos:station:TCOON:005:1,2015-04-02T12:18:00Z,27.6346,-97.2370,0.865,1111122 
TCOON,ioos:station:TCOON:005:1,2015-04-02T13:18:00Z,27.6346,-97.2370,0.86,1111122 
TCOON,ioos:station:TCOON:005:1,2015-04-02T14:12:00Z,27.6346,-97.2370,0.85,1111122 
TCOON,ioos:station:TCOON:005:1,2015-04-02T15:18:00Z,27.6346,-97.2370,0.841,1111122 
TCOON,ioos:station:TCOON:005:1,2015-04-02T16:12:00Z,27.6346,-97.2370,0.837,1111122 
TCOON,ioos:station:TCOON:005:1,2015-04-02T17:18:00Z,27.6346,-97.2370,0.839,1111122 
TCOON,ioos:station:TCOON:005:1,2015-04-02T18:18:00Z,27.6346,-97.2370,0.834,1111122 
TCOON,ioos:station:TCOON:005:1,2015-04-02T19:12:00Z,27.6346,-97.2370,0.832,1111122 
TCOON,ioos:station:TCOON:005:1,2015-04-02T20:12:00Z,27.6346,-97.2370,0.836,1111122 
TCOON,ioos:station:TCOON:005:1,2015-04-02T21:12:00Z,27.6346,-97.2370,0.842,1111122 
TCOON,ioos:station:TCOON:005:1,2015-04-02T22:12:00Z,27.6346,-97.2370,0.846,1111122 
TCOON,ioos:station:TCOON:005:1,2015-04-02T23:12:00Z,27.6346,-97.2370,0.843,1111122 
TCOON,ioos:station:TCOON:005:1,2015-04-03T00:12:00Z,27.6346,-97.2370,0.844,1111122 
TCOON,ioos:station:TCOON:005:1,2015-04-03T01:12:00Z,27.6346,-97.2370,0.838,1111122 
TCOON,ioos:station:TCOON:005:1,2015-04-03T02:12:00Z,27.6346,-97.2370,0.846,1111122 
TCOON,ioos:station:TCOON:005:1,2015-04-03T03:18:00Z,27.6346,-97.2370,0.847,1111122 
TCOON,ioos:station:TCOON:005:1,2015-04-03T04:12:00Z,27.6346,-97.2370,0.836,1111122 
TCOON,ioos:station:TCOON:005:1,2015-04-03T05:18:00Z,27.6346,-97.2370,0.831,1111122 
TCOON,ioos:station:TCOON:005:1,2015-04-03T06:18:00Z,27.6346,-97.2370,0.826,1111122 
TCOON,ioos:station:TCOON:005:1,2015-04-03T07:12:00Z,27.6346,-97.2370,0.825,1111122 
TCOON,ioos:station:TCOON:005:1,2015-04-03T08:12:00Z,27.6346,-97.2370,0.833,1111122 
TCOON,ioos:station:TCOON:005:1,2015-04-03T09:30:00Z,27.6346,-97.2370,0.844,1111122 
TCOON,ioos:station:TCOON:005:1,2015-04-03T10:12:00Z,27.6346,-97.2370,0.849,1111122 
TCOON,ioos:station:TCOON:005:1,2015-04-03T11:18:00Z,27.6346,-97.2370,0.851,1111122 
TCOON,ioos:station:TCOON:005:1,2015-04-03T12:18:00Z,27.6346,-97.2370,0.849,1111122 
TCOON,ioos:station:TCOON:005:1,2015-04-03T13:12:00Z,27.6346,-97.2370,0.845,1111122 
TCOON,ioos:station:TCOON:005:1,2015-04-03T14:12:00Z,27.6346,-97.2370,0.846,1111122 
TCOON,ioos:station:TCOON:005:1,2015-04-03T15:18:00Z,27.6346,-97.2370,0.846,1111122 
TCOON,ioos:station:TCOON:005:1,2015-04-03T16:12:00Z,27.6346,-97.2370,0.845,1111122 
TCOON,ioos:station:TCOON:005:1,2015-04-03T17:12:00Z,27.6346,-97.2370,0.84,1111122 
TCOON,ioos:station:TCOON:005:1,2015-04-03T18:12:00Z,27.6346,-97.2370,0.842,1111122 
TCOON,ioos:station:TCOON:005:1,2015-04-03T19:12:00Z,27.6346,-97.2370,0.842,1111122 
TCOON,ioos:station:TCOON:005:1,2015-04-03T20:12:00Z,27.6346,-97.2370,0.844,1111122 
TCOON,ioos:station:TCOON:005:1,2015-04-03T21:12:00Z,27.6346,-97.2370,0.844,1111122 
TCOON,ioos:station:TCOON:005:1,2015-04-03T22:12:00Z,27.6346,-97.2370,0.839,1111122 
TCOON,ioos:station:TCOON:005:1,2015-04-03T23:12:00Z,27.6346,-97.2370,0.841,1111122 
TCOON,ioos:station:TCOON:005:1,2015-04-04T00:12:00Z,27.6346,-97.2370,0.843,1111122 
TCOON,ioos:station:TCOON:005:1,2015-04-04T01:30:00Z,27.6346,-97.2370,0.835,1111122 
TCOON,ioos:station:TCOON:005:1,2015-04-04T02:12:00Z,27.6346,-97.2370,0.832,1111122 
TCOON,ioos:station:TCOON:005:1,2015-04-04T03:12:00Z,27.6346,-97.2370,0.83,1111122 
TCOON,ioos:station:TCOON:005:1,2015-04-04T04:12:00Z,27.6346,-97.2370,0.83,1111122 
TCOON,ioos:station:TCOON:005:1,2015-04-04T05:12:00Z,27.6346,-97.2370,0.823,1111122 
TCOON,ioos:station:TCOON:005:1,2015-04-04T07:06:00Z,27.6346,-97.2370,0.818,1111122 
TCOON,ioos:station:TCOON:005:1,2015-04-04T08:12:00Z,27.6346,-97.2370,0.821,1111122 
TCOON,ioos:station:TCOON:005:1,2015-04-04T09:12:00Z,27.6346,-97.2370,0.838,1111122 
TCOON,ioos:station:TCOON:005:1,2015-04-04T10:12:00Z,27.6346,-97.2370,0.869,1111122 
TCOON,ioos:station:TCOON:005:1,2015-04-04T11:12:00Z,27.6346,-97.2370,0.868,1111122 
TCOON,ioos:station:TCOON:005:1,2015-04-04T12:12:00Z,27.6346,-97.2370,0.861,1111122 
TCOON,ioos:station:TCOON:005:1,2015-04-04T13:12:00Z,27.6346,-97.2370,0.85,1111122 
TCOON,ioos:station:TCOON:005:1,2015-04-04T14:12:00Z,27.6346,-97.2370,0.854,1111122 
TCOON,ioos:station:TCOON:005:1,2015-04-04T15:12:00Z,27.6346,-97.2370,0.851,1111122 
TCOON,ioos:station:TCOON:005:1,2015-04-04T16:12:00Z,27.6346,-97.2370,0.849,1111122 
TCOON,ioos:station:TCOON:005:1,2015-04-04T17:12:00Z,27.6346,-97.2370,0.851,1111122 
TCOON,ioos:station:TCOON:005:1,2015-04-04T18:12:00Z,27.6346,-97.2370,0.858,1111122 
TCOON,ioos:station:TCOON:005:1,2015-04-04T19:12:00Z,27.6346,-97.2370,0.859,1111122 
TCOON,ioos:station:TCOON:005:1,2015-04-04T20:12:00Z,27.6346,-97.2370,0.862,1111122 
TCOON,ioos:station:TCOON:005:1,2015-04-04T21:12:00Z,27.6346,-97.2370,0.872,1111122 
TCOON,ioos:station:TCOON:005:1,2015-04-04T22:12:00Z,27.6346,-97.2370,0.867,1111122 
TCOON,ioos:station:TCOON:005:1,2015-04-04T23:12:00Z,27.6346,-97.2370,0.872,1111122 
TCOON,ioos:station:TCOON:005:1,2015-04-05T00:12:00Z,27.6346,-97.2370,0.873,1111122 
TCOON,ioos:station:TCOON:005:1,2015-04-05T01:12:00Z,27.6346,-97.2370,0.878,1111122 
TCOON,ioos:station:TCOON:005:1,2015-04-05T02:12:00Z,27.6346,-97.2370,0.883,1111122 
TCOON,ioos:station:TCOON:005:1,2015-04-05T03:12:00Z,27.6346,-97.2370,0.885,1111122 
TCOON,ioos:station:TCOON:005:1,2015-04-05T04:12:00Z,27.6346,-97.2370,0.888,1111122 
TCOON,ioos:station:TCOON:005:1,2015-04-05T05:12:00Z,27.6346,-97.2370,0.894,1111122 
TCOON,ioos:station:TCOON:005:1,2015-04-05T07:06:00Z,27.6346,-97.2370,0.899,1111122 
TCOON,ioos:station:TCOON:005:1,2015-04-05T08:12:00Z,27.6346,-97.2370,0.901,1111122 
TCOON,ioos:station:TCOON:005:1,2015-04-05T09:12:00Z,27.6346,-97.2370,0.905,1111122 
TCOON,ioos:station:TCOON:005:1,2015-04-05T10:12:00Z,27.6346,-97.2370,0.92,1111122 
TCOON,ioos:station:TCOON:005:1,2015-04-05T11:12:00Z,27.6346,-97.2370,0.931,1111122 
TCOON,ioos:station:TCOON:005:1,2015-04-05T12:12:00Z,27.6346,-97.2370,0.951,1111122 
TCOON,ioos:station:TCOON:005:1,2015-04-05T13:12:00Z,27.6346,-97.2370,0.976,1111122 
TCOON,ioos:station:TCOON:005:1,2015-04-05T14:12:00Z,27.6346,-97.2370,0.988,1111122 
TCOON,ioos:station:TCOON:005:1,2015-04-05T15:12:00Z,27.6346,-97.2370,0.997,1111122 
TCOON,ioos:station:TCOON:005:1,2015-04-05T16:12:00Z,27.6346,-97.2370,1.002,1111122 
TCOON,ioos:station:TCOON:005:1,2015-04-05T17:12:00Z,27.6346,-97.2370,0.991,1111122 
TCOON,ioos:station:TCOON:005:1,2015-04-05T18:12:00Z,27.6346,-97.2370,0.991,1111122 
TCOON,ioos:station:TCOON:005:1,2015-04-05T19:12:00Z,27.6346,-97.2370,0.985,1111122 
TCOON,ioos:station:TCOON:005:1,2015-04-05T20:12:00Z,27.6346,-97.2370,0.986,1111122 
TCOON,ioos:station:TCOON:005:1,2015-04-05T21:12:00Z,27.6346,-97.2370,1.018,1111122 
TCOON,ioos:station:TCOON:005:1,2015-04-05T22:12:00Z,27.6346,-97.2370,1.01,1111122 
TCOON,ioos:station:TCOON:005:1,2015-04-05T23:12:00Z,27.6346,-97.2370,0.996,1111122 
TCOON,ioos:station:TCOON:005:1,2015-04-06T00:12:00Z,27.6346,-97.2370,0.991,1111122 
TCOON,ioos:station:TCOON:005:1,2015-04-06T01:12:00Z,27.6346,-97.2370,0.983,1111122 
TCOON,ioos:station:TCOON:005:1,2015-04-06T02:12:00Z,27.6346,-97.2370,0.976,1111122 
TCOON,ioos:station:TCOON:005:1,2015-04-06T03:12:00Z,27.6346,-97.2370,0.959,1111122 
TCOON,ioos:station:TCOON:005:1,2015-04-06T04:12:00Z,27.6346,-97.2370,0.942,1111122 
TCOON,ioos:station:TCOON:005:1,2015-04-06T05:18:00Z,27.6346,-97.2370,0.927,1111122 
TCOON,ioos:station:TCOON:005:1,2015-04-06T06:18:00Z,27.6346,-97.2370,0.916,1111122 
TCOON,ioos:station:TCOON:005:1,2015-04-06T07:12:00Z,27.6346,-97.2370,0.911,1111122 
TCOON,ioos:station:TCOON:005:1,2015-04-06T08:12:00Z,27.6346,-97.2370,0.914,1111122 
TCOON,ioos:station:TCOON:005:1,2015-04-06T09:18:00Z,27.6346,-97.2370,0.917,1111122 
TCOON,ioos:station:TCOON:005:1,2015-04-06T10:12:00Z,27.6346,-97.2370,0.93,1111122 
TCOON,ioos:station:TCOON:005:1,2015-04-06T11:12:00Z,27.6346,-97.2370,0.944,1111122 
TCOON,ioos:station:TCOON:005:1,2015-04-06T12:12:00Z,27.6346,-97.2370,0.966,1111122 
TCOON,ioos:station:TCOON:005:1,2015-04-06T13:12:00Z,27.6346,-97.2370,0.973,1111122 
TCOON,ioos:station:TCOON:005:1,2015-04-06T14:12:00Z,27.6346,-97.2370,0.981,1111122 
TCOON,ioos:station:TCOON:005:1,2015-04-06T15:18:00Z,27.6346,-97.2370,0.982,1111122 
TCOON,ioos:station:TCOON:005:1,2015-04-06T16:12:00Z,27.6346,-97.2370,0.985,1111122 
TCOON,ioos:station:TCOON:005:1,2015-04-06T17:18:00Z,27.6346,-97.2370,0.99,1111122 
TCOON,ioos:station:TCOON:005:1,2015-04-06T18:18:00Z,27.6346,-97.2370,1.0,1111122 
TCOON,ioos:station:TCOON:005:1,2015-04-06T19:18:00Z,27.6346,-97.2370,1.006,1111122 
TCOON,ioos:station:TCOON:005:1,2015-04-06T20:18:00Z,27.6346,-97.2370,1.012,1111122 
TCOON,ioos:station:TCOON:005:1,2015-04-06T21:18:00Z,27.6346,-97.2370,1.019,1111122 
TCOON,ioos:station:TCOON:005:1,2015-04-06T22:18:00Z,27.6346,-97.2370,1.015,1111122 
TCOON,ioos:station:TCOON:005:1,2015-04-06T23:12:00Z,27.6346,-97.2370,1.021,1111122 
TCOON,ioos:station:TCOON:005:1,2015-04-07T00:12:00Z,27.6346,-97.2370,1.022,1111122 
TCOON,ioos:station:TCOON:005:1,2015-04-07T01:12:00Z,27.6346,-97.2370,1.015,1111122 
TCOON,ioos:station:TCOON:005:1,2015-04-07T02:12:00Z,27.6346,-97.2370,1.013,1111122 
TCOON,ioos:station:TCOON:005:1,2015-04-07T03:12:00Z,27.6346,-97.2370,1.006,1111122 
TCOON,ioos:station:TCOON:005:1,2015-04-07T04:18:00Z,27.6346,-97.2370,0.993,1111122 
TCOON,ioos:station:TCOON:005:1,2015-04-07T05:12:00Z,27.6346,-97.2370,0.979,1111122 
TCOON,ioos:station:TCOON:005:1,2015-04-07T07:06:00Z,27.6346,-97.2370,0.956,1111122 
TCOON,ioos:station:TCOON:005:1,2015-04-07T08:12:00Z,27.6346,-97.2370,0.952,1111122 
TCOON,ioos:station:TCOON:005:1,2015-04-07T09:18:00Z,27.6346,-97.2370,0.955,1111122 
TCOON,ioos:station:TCOON:005:1,2015-04-07T10:12:00Z,27.6346,-97.2370,0.955,1111122 
TCOON,ioos:station:TCOON:005:1,2015-04-07T11:18:00Z,27.6346,-97.2370,0.965,1111122 
TCOON,ioos:station:TCOON:005:1,2015-04-07T12:18:00Z,27.6346,-97.2370,0.972,1111122 
TCOON,ioos:station:TCOON:005:1,2015-04-07T13:12:00Z,27.6346,-97.2370,0.983,1111122 
TCOON,ioos:station:TCOON:005:1,2015-04-07T14:12:00Z,27.6346,-97.2370,0.998,1111122 
TCOON,ioos:station:TCOON:005:1,2015-04-07T15:18:00Z,27.6346,-97.2370,1.012,1111122 
TCOON,ioos:station:TCOON:005:1,2015-04-07T16:18:00Z,27.6346,-97.2370,1.02,1111122 
TCOON,ioos:station:TCOON:005:1,2015-04-07T17:18:00Z,27.6346,-97.2370,1.023,1111122 
TCOON,ioos:station:TCOON:005:1,2015-04-07T18:18:00Z,27.6346,-97.2370,1.019,1111122 
TCOON,ioos:station:TCOON:005:1,2015-04-07T19:18:00Z,27.6346,-97.2370,1.023,1111122 
TCOON,ioos:station:TCOON:005:1,2015-04-07T20:12:00Z,27.6346,-97.2370,1.03,1111122 
TCOON,ioos:station:TCOON:005:1,2015-04-07T21:18:00Z,27.6346,-97.2370,1.021,1111122 
TCOON,ioos:station:TCOON:005:1,2015-04-07T22:24:00Z,27.6346,-97.2370,1.013,1111122 
TCOON,ioos:station:TCOON:005:1,2015-04-07T23:12:00Z,27.6346,-97.2370,1.008,1111122 
TCOON,ioos:station:TCOON:005:1,2015-04-08T00:12:00Z,27.6346,-97.2370,1.001,1111122 
TCOON,ioos:station:TCOON:005:1,2015-04-08T01:12:00Z,27.6346,-97.2370,0.986,1111122 
TCOON,ioos:station:TCOON:005:1,2015-04-08T02:12:00Z,27.6346,-97.2370,0.97,1111122 
TCOON,ioos:station:TCOON:005:1,2015-04-08T03:12:00Z,27.6346,-97.2370,0.952,1111122 
TCOON,ioos:station:TCOON:005:1,2015-04-08T04:12:00Z,27.6346,-97.2370,0.932,1111122 
TCOON,ioos:station:TCOON:005:1,2015-04-08T05:18:00Z,27.6346,-97.2370,0.92,1111122 
TCOON,ioos:station:TCOON:005:1,2015-04-08T07:06:00Z,27.6346,-97.2370,0.905,1111122 
TCOON,ioos:station:TCOON:005:1,2015-04-08T08:12:00Z,27.6346,-97.2370,0.898,1111122 
TCOON,ioos:station:TCOON:005:1,2015-04-08T09:18:00Z,27.6346,-97.2370,0.908,1111122 
TCOON,ioos:station:TCOON:005:1,2015-04-08T10:12:00Z,27.6346,-97.2370,0.914,1111122 
TCOON,ioos:station:TCOON:005:1,2015-04-08T11:12:00Z,27.6346,-97.2370,0.917,1111122 
TCOON,ioos:station:TCOON:005:1,2015-04-08T12:12:00Z,27.6346,-97.2370,0.919,1111122 
TCOON,ioos:station:TCOON:005:1,2015-04-08T13:18:00Z,27.6346,-97.2370,0.926,1111122 
TCOON,ioos:station:TCOON:005:1,2015-04-08T14:12:00Z,27.6346,-97.2370,0.938,1111122 
TCOON,ioos:station:TCOON:005:1,2015-04-08T15:18:00Z,27.6346,-97.2370,0.95,1111122 
TCOON,ioos:station:TCOON:005:1,2015-04-08T16:18:00Z,27.6346,-97.2370,0.959,1111122 
TCOON,ioos:station:TCOON:005:1,2015-04-08T17:18:00Z,27.6346,-97.2370,0.971,1111122 
TCOON,ioos:station:TCOON:005:1,2015-04-08T18:12:00Z,27.6346,-97.2370,0.976,1111122 
TCOON,ioos:station:TCOON:005:1,2015-04-08T19:18:00Z,27.6346,-97.2370,0.981,1111122 
TCOON,ioos:station:TCOON:005:1,2015-04-08T20:24:00Z,27.6346,-97.2370,1.001,1111122 
TCOON,ioos:station:TCOON:005:1,2015-04-08T21:12:00Z,27.6346,-97.2370,1.005,1111122 
TCOON,ioos:station:TCOON:005:1,2015-04-08T22:18:00Z,27.6346,-97.2370,1.006,1111122 
TCOON,ioos:station:TCOON:005:1,2015-04-08T23:36:00Z,27.6346,-97.2370,1.009,1111122 
TCOON,ioos:station:TCOON:005:1,2015-04-09T00:18:00Z,27.6346,-97.2370,1.011,1111122 
TCOON,ioos:station:TCOON:005:1,2015-04-09T01:12:00Z,27.6346,-97.2370,1.005,1111122 
TCOON,ioos:station:TCOON:005:1,2015-04-09T02:54:00Z,27.6346,-97.2370,0.989,1111122 
TCOON,ioos:station:TCOON:005:1,2015-04-09T03:12:00Z,27.6346,-97.2370,0.987,1111122 
TCOON,ioos:station:TCOON:005:1,2015-04-09T04:12:00Z,27.6346,-97.2370,0.969,1111122 
TCOON,ioos:station:TCOON:005:1,2015-04-09T05:12:00Z,27.6346,-97.2370,0.949,1111122 
TCOON,ioos:station:TCOON:005:1,2015-04-09T07:06:00Z,27.6346,-97.2370,0.92,1111122 
TCOON,ioos:station:TCOON:005:1,2015-04-09T08:18:00Z,27.6346,-97.2370,0.885,1111122 
TCOON,ioos:station:TCOON:005:1,2015-04-09T09:36:00Z,27.6346,-97.2370,0.95,1111122 
TCOON,ioos:station:TCOON:005:1,2015-04-09T10:12:00Z,27.6346,-97.2370,0.958,1111122 
TCOON,ioos:station:TCOON:005:1,2015-04-09T11:12:00Z,27.6346,-97.2370,0.946,1111122 
TCOON,ioos:station:TCOON:005:1,2015-04-09T12:18:00Z,27.6346,-97.2370,0.949,1111122 
TCOON,ioos:station:TCOON:005:1,2015-04-09T13:18:00Z,27.6346,-97.2370,0.951,1111122 
TCOON,ioos:station:TCOON:005:1,2015-04-09T14:12:00Z,27.6346,-97.2370,0.952,1111122 
TCOON,ioos:station:TCOON:005:1,2015-04-09T15:18:00Z,27.6346,-97.2370,0.954,1111122 
TCOON,ioos:station:TCOON:005:1,2015-04-09T16:18:00Z,27.6346,-97.2370,0.967,1111122 
TCOON,ioos:station:TCOON:005:1,2015-04-09T17:18:00Z,27.6346,-97.2370,0.979,1111122 
TCOON,ioos:station:TCOON:005:1,2015-04-09T18:36:00Z,27.6346,-97.2370,0.984,1111122 
TCOON,ioos:station:TCOON:005:1,2015-04-09T19:30:00Z,27.6346,-97.2370,0.991,1111122 
TCOON,ioos:station:TCOON:005:1,2015-04-09T20:24:00Z,27.6346,-97.2370,0.996,1111122 
TCOON,ioos:station:TCOON:005:1,2015-04-09T21:36:00Z,27.6346,-97.2370,1.002,1111122 
TCOON,ioos:station:TCOON:005:1,2015-04-09T22:18:00Z,27.6346,-97.2370,1.002,1111122 
TCOON,ioos:station:TCOON:005:1,2015-04-09T23:18:00Z,27.6346,-97.2370,1.003,1111122 
TCOON,ioos:station:TCOON:005:1,2015-04-10T00:12:00Z,27.6346,-97.2370,1.005,1111122 
TCOON,ioos:station:TCOON:005:1,2015-04-10T01:12:00Z,27.6346,-97.2370,0.996,1111122 
TCOON,ioos:station:TCOON:005:1,2015-04-10T02:12:00Z,27.6346,-97.2370,0.989,1111122 
TCOON,ioos:station:TCOON:005:1,2015-04-10T03:12:00Z,27.6346,-97.2370,0.975,1111122 
TCOON,ioos:station:TCOON:005:1,2015-04-10T04:18:00Z,27.6346,-97.2370,0.967,1111122 
TCOON,ioos:station:TCOON:005:1,2015-04-10T05:18:00Z,27.6346,-97.2370,0.952,1111122 
TCOON,ioos:station:TCOON:005:1,2015-04-10T07:30:00Z,27.6346,-97.2370,0.911,1111122 
TCOON,ioos:station:TCOON:005:1,2015-04-10T08:18:00Z,27.6346,-97.2370,0.906,1111122 
TCOON,ioos:station:TCOON:005:1,2015-04-10T09:24:00Z,27.6346,-97.2370,0.897,1111122 
TCOON,ioos:station:TCOON:005:1,2015-04-10T10:18:00Z,27.6346,-97.2370,0.888,1111122 
TCOON,ioos:station:TCOON:005:1,2015-04-10T11:12:00Z,27.6346,-97.2370,0.887,1111122 
TCOON,ioos:station:TCOON:005:1,2015-04-10T12:18:00Z,27.6346,-97.2370,0.892,1111122 
TCOON,ioos:station:TCOON:005:1,2015-04-10T13:18:00Z,27.6346,-97.2370,0.888,1111122 
TCOON,ioos:station:TCOON:005:1,2015-04-10T14:36:00Z,27.6346,-97.2370,0.898,1111122 
TCOON,ioos:station:TCOON:005:1,2015-04-10T15:18:00Z,27.6346,-97.2370,0.902,1111122 
TCOON,ioos:station:TCOON:005:1,2015-04-10T16:12:00Z,27.6346,-97.2370,0.916,1111122 
TCOON,ioos:station:TCOON:005:1,2015-04-10T17:18:00Z,27.6346,-97.2370,0.938,1111122 
TCOON,ioos:station:TCOON:005:1,2015-04-10T18:36:00Z,27.6346,-97.2370,0.954,1111122 
TCOON,ioos:station:TCOON:005:1,2015-04-10T20:48:00Z,27.6346,-97.2370,1.001,1111122 
TCOON,ioos:station:TCOON:005:1,2015-04-10T21:12:00Z,27.6346,-97.2370,0.992,1111122 
TCOON,ioos:station:TCOON:005:1,2015-04-10T22:24:00Z,27.6346,-97.2370,0.995,1111122 
TCOON,ioos:station:TCOON:005:1,2015-04-10T23:18:00Z,27.6346,-97.2370,0.989,1111122 
TCOON,ioos:station:TCOON:005:1,2015-04-11T00:48:00Z,27.6346,-97.2370,0.99,1111122 
TCOON,ioos:station:TCOON:005:1,2015-04-11T01:24:00Z,27.6346,-97.2370,0.986,1111122 
TCOON,ioos:station:TCOON:005:1,2015-04-11T02:12:00Z,27.6346,-97.2370,0.983,1111122 
TCOON,ioos:station:TCOON:005:1,2015-04-11T03:12:00Z,27.6346,-97.2370,0.976,1111122 
TCOON,ioos:station:TCOON:005:1,2015-04-11T04:18:00Z,27.6346,-97.2370,0.967,1111122 
TCOON,ioos:station:TCOON:005:1,2015-04-11T05:12:00Z,27.6346,-97.2370,0.956,1111122 
TCOON,ioos:station:TCOON:005:1,2015-04-11T06:30:00Z,27.6346,-97.2370,0.945,1111122 
TCOON,ioos:station:TCOON:005:1,2015-04-11T07:42:00Z,27.6346,-97.2370,0.928,1111122 
TCOON,ioos:station:TCOON:005:1,2015-04-11T08:30:00Z,27.6346,-97.2370,0.911,1111122 
TCOON,ioos:station:TCOON:005:1,2015-04-11T09:12:00Z,27.6346,-97.2370,0.904,1111122 
TCOON,ioos:station:TCOON:005:1,2015-04-11T10:18:00Z,27.6346,-97.2370,0.89,1111122 
TCOON,ioos:station:TCOON:005:1,2015-04-11T11:18:00Z,27.6346,-97.2370,0.878,1111122 
TCOON,ioos:station:TCOON:005:1,2015-04-11T12:12:00Z,27.6346,-97.2370,0.88,1111122 
TCOON,ioos:station:TCOON:005:1,2015-04-11T13:12:00Z,27.6346,-97.2370,0.875,1111122 
TCOON,ioos:station:TCOON:005:1,2015-04-11T14:12:00Z,27.6346,-97.2370,0.876,1111122 
TCOON,ioos:station:TCOON:005:1,2015-04-11T15:24:00Z,27.6346,-97.2370,0.886,1111122 
TCOON,ioos:station:TCOON:005:1,2015-04-11T16:12:00Z,27.6346,-97.2370,0.896,1111122 
TCOON,ioos:station:TCOON:005:1,2015-04-11T17:12:00Z,27.6346,-97.2370,0.904,1111122 
TCOON,ioos:station:TCOON:005:1,2015-04-11T18:24:00Z,27.6346,-97.2370,0.912,1111122 
TCOON,ioos:station:TCOON:005:1,2015-04-11T19:24:00Z,27.6346,-97.2370,0.941,1111122 
TCOON,ioos:station:TCOON:005:1,2015-04-11T20:30:00Z,27.6346,-97.2370,0.962,1111122 
TCOON,ioos:station:TCOON:005:1,2015-04-11T21:12:00Z,27.6346,-97.2370,0.966,1111122 
TCOON,ioos:station:TCOON:005:1,2015-04-12T00:12:00Z,27.6346,-97.2370,0.989,1111122 
TCOON,ioos:station:TCOON:005:1,2015-04-12T01:12:00Z,27.6346,-97.2370,0.996,1111122 
TCOON,ioos:station:TCOON:005:1,2015-04-12T02:12:00Z,27.6346,-97.2370,1.001,1111122 
TCOON,ioos:station:TCOON:005:1,2015-04-12T03:12:00Z,27.6346,-97.2370,1.0,1111122 
TCOON,ioos:station:TCOON:005:1,2015-04-12T04:12:00Z,27.6346,-97.2370,1.001,1111122 
TCOON,ioos:station:TCOON:005:1,2015-04-12T05:12:00Z,27.6346,-97.2370,0.989,1111122 
TCOON,ioos:station:TCOON:005:1,2015-04-12T07:06:00Z,27.6346,-97.2370,0.977,1111122 
TCOON,ioos:station:TCOON:005:1,2015-04-12T08:30:00Z,27.6346,-97.2370,0.956,1111122 
TCOON,ioos:station:TCOON:005:1,2015-04-12T09:12:00Z,27.6346,-97.2370,0.949,1111122 
TCOON,ioos:station:TCOON:005:1,2015-04-12T10:12:00Z,27.6346,-97.2370,0.945,1111122 
TCOON,ioos:station:TCOON:005:1,2015-04-12T11:12:00Z,27.6346,-97.2370,0.934,1111122 
TCOON,ioos:station:TCOON:005:1,2015-04-12T12:12:00Z,27.6346,-97.2370,0.929,1111122 
TCOON,ioos:station:TCOON:005:1,2015-04-12T13:24:00Z,27.6346,-97.2370,0.934,1111122 
TCOON,ioos:station:TCOON:005:1,2015-04-12T14:42:00Z,27.6346,-97.2370,0.934,1111122 
TCOON,ioos:station:TCOON:005:1,2015-04-12T15:24:00Z,27.6346,-97.2370,0.938,1111122 
TCOON,ioos:station:TCOON:005:1,2015-04-12T16:30:00Z,27.6346,-97.2370,0.953,1111122 
TCOON,ioos:station:TCOON:005:1,2015-04-12T17:12:00Z,27.6346,-97.2370,0.958,1111122 
TCOON,ioos:station:TCOON:005:1,2015-04-12T18:12:00Z,27.6346,-97.2370,0.974,1111122 
TCOON,ioos:station:TCOON:005:1,2015-04-12T19:24:00Z,27.6346,-97.2370,1.002,1111122 
TCOON,ioos:station:TCOON:005:1,2015-04-12T22:12:00Z,27.6346,-97.2370,1.003,1111122 
TCOON,ioos:station:TCOON:005:1,2015-04-12T23:12:00Z,27.6346,-97.2370,1.029,1111122 
TCOON,ioos:station:TCOON:005:1,2015-04-13T00:12:00Z,27.6346,-97.2370,1.034,1111122 
TCOON,ioos:station:TCOON:005:1,2015-04-13T01:12:00Z,27.6346,-97.2370,1.047,1111122 
TCOON,ioos:station:TCOON:005:1,2015-04-13T02:24:00Z,27.6346,-97.2370,1.049,1111122 
TCOON,ioos:station:TCOON:005:1,2015-04-13T03:12:00Z,27.6346,-97.2370,1.039,1111122 
TCOON,ioos:station:TCOON:005:1,2015-04-13T04:24:00Z,27.6346,-97.2370,1.048,1111122 
TCOON,ioos:station:TCOON:005:1,2015-04-13T05:18:00Z,27.6346,-97.2370,1.058,1111122 
TCOON,ioos:station:TCOON:005:1,2015-04-13T07:36:00Z,27.6346,-97.2370,1.085,1111122 
TCOON,ioos:station:TCOON:005:1,2015-04-13T08:18:00Z,27.6346,-97.2370,1.054,1111122 
TCOON,ioos:station:TCOON:005:1,2015-04-13T09:24:00Z,27.6346,-97.2370,1.033,1111122 
TCOON,ioos:station:TCOON:005:1,2015-04-13T10:18:00Z,27.6346,-97.2370,1.017,1111122 